Date String (YYYY-MM-DD hh:mm:ss) UTC,Instrument flags,Ambient pressure (hPa),Sample flow (lpm),Bypass flow (lpm),Sample temperature (°C),Ambient temperature (°C),ASC tube jacket temperature (°C),LED temperature (°C),Box temperature (°C),Sample RH (%),Span deviation,Mass concentration (μg/m³),Mass concentration (μg/m³),Mass concentration (μg/m³)
DateTimeUTC,F1_M11,P_M11,Q1_M11,Q2_M11,T1_M11,T2_M11,T3_M11,T4_M11,T5_M11,U1_M11,ZSPAN_M11,X0_M11,X2_M11,X1_M11
2022-10-01 02:00:00,,0826.6,5.00,0.00,29.8,28.4,00.0,38.6,31.7,27.6,0000.0,0007.36,0002.76,0001.95
2022-10-01 02:01:00,,0826.7,5.00,0.00,29.8,28.4,00.0,38.6,31.7,27.6,0000.0,0006.97,0002.64,0001.94
2022-10-01 02:02:00,,0826.7,4.99,0.00,29.8,28.4,00.0,38.6,31.7,27.4,0000.0,0007.09,0002.64,0001.95
2022-10-01 02:03:00,,0826.7,5.00,0.00,29.8,28.4,00.0,38.6,31.7,27.4,0000.0,0007.26,0002.64,0001.95
2022-10-01 02:04:00,,0826.6,5.01,0.00,29.8,28.4,00.0,38.6,31.7,27.5,0000.0,0007.28,0002.62,0001.96
2022-10-01 02:05:00,,0826.7,5.01,0.00,29.8,28.4,00.0,38.6,31.7,27.5,0000.0,0007.11,0002.67,0001.96
2022-10-01 02:06:00,,0826.7,4.99,0.00,29.8,28.4,00.0,38.6,31.7,27.7,0000.0,0006.59,0002.73,0001.96
2022-10-01 02:07:00,,0826.7,5.00,0.00,29.8,28.5,00.0,38.6,31.7,27.7,0000.0,0007.00,0002.81,0001.99
2022-10-01 02:08:00,,0826.7,5.00,0.00,29.9,28.5,00.0,38.6,31.8,27.6,0000.0,0007.56,0002.82,0002.00
2022-10-01 02:09:00,,0826.7,5.00,0.00,29.9,28.5,00.0,38.6,31.7,27.6,0000.0,0006.51,0002.80,0002.02
2022-10-01 02:10:00,,0826.7,5.01,0.00,29.9,28.5,00.0,38.6,31.7,27.7,0000.0,0006.52,0002.80,0002.04
2022-10-01 02:11:00,,0826.7,4.99,0.00,29.9,28.6,00.0,38.6,31.8,27.8,0000.0,0007.40,0002.82,0002.04
2022-10-01 02:12:00,,0826.7,5.00,0.00,29.9,28.6,00.0,38.6,31.8,27.7,0000.0,0007.42,0002.81,0002.04
2022-10-01 02:13:00,,0826.7,5.01,0.00,29.9,28.7,00.0,38.7,31.8,27.5,0000.0,0007.24,0002.81,0002.04
2022-10-01 02:14:00,,0826.7,5.00,0.00,30.0,28.7,00.0,38.7,31.9,27.6,0000.0,0007.24,0002.90,0002.06
2022-10-01 02:15:00,,0826.7,4.99,0.00,30.0,28.7,00.0,38.7,31.9,27.5,0000.0,0007.16,0002.89,0002.05
2022-10-01 02:16:00,,0826.7,5.01,0.00,30.0,28.8,00.0,38.7,31.9,27.5,0000.0,0007.05,0002.86,0002.06
2022-10-01 02:17:00,,0826.7,5.00,0.00,30.0,28.8,00.0,38.7,31.9,27.3,0000.0,0006.83,0002.79,0002.06
2022-10-01 02:18:00,,0826.7,5.00,0.00,30.0,28.8,00.0,38.7,31.9,27.1,0000.0,0006.38,0002.75,0002.05
2022-10-01 02:19:00,,0826.7,5.00,0.00,30.0,28.8,00.0,38.7,31.9,27.0,0000.0,0005.42,0002.73,0002.05
2022-10-01 02:20:00,,0826.7,5.01,0.00,30.1,28.8,00.0,38.7,31.9,27.0,0000.0,0005.28,0002.71,0002.05
2022-10-01 02:21:00,,0826.7,4.99,0.00,30.1,28.8,00.0,38.8,31.9,27.2,0000.0,0004.99,0002.64,0002.04
2022-10-01 02:22:00,,0826.7,5.02,0.00,30.1,28.8,00.0,38.8,32.0,27.1,0000.0,0004.03,0002.62,0002.03
2022-10-01 02:23:00,,0826.9,4.98,0.00,30.1,28.8,00.0,38.8,32.0,26.8,0000.0,0004.61,0002.73,0002.04
2022-10-01 02:24:00,,0826.8,5.00,0.00,30.1,28.8,00.0,38.8,32.0,26.6,0000.0,0004.71,0002.75,0002.04
2022-10-01 02:25:00,,0826.7,5.01,0.00,30.1,28.8,00.0,38.8,32.0,26.5,0000.0,0004.42,0002.66,0002.05
2022-10-01 02:26:00,,0826.8,5.00,0.00,30.1,28.9,00.0,38.8,32.0,26.5,0000.0,0004.76,0002.65,0002.05
2022-10-01 02:27:00,,0827.0,4.99,0.00,30.1,28.8,00.0,38.8,32.0,26.6,0000.0,0005.97,0002.66,0002.06
2022-10-01 02:28:00,,0826.9,5.00,0.00,30.1,28.8,00.0,38.8,32.0,26.7,0000.0,0005.95,0002.69,0002.07
2022-10-01 02:29:00,,0826.9,5.00,0.00,30.1,28.8,00.0,38.8,32.0,26.7,0000.0,0005.98,0002.70,0002.09
2022-10-01 02:30:00,,0826.9,4.99,0.00,30.2,28.9,00.0,38.9,32.0,26.6,0000.0,0005.98,0002.71,0002.10
2022-10-01 02:31:00,,0826.9,5.00,0.00,30.2,28.9,00.0,38.9,32.0,26.5,0000.0,0006.22,0002.75,0002.09
2022-10-01 02:32:00,,0826.9,5.00,0.00,30.2,28.9,00.0,38.9,32.0,26.5,0000.0,0006.39,0002.81,0002.10
2022-10-01 02:33:00,,0827.0,4.99,0.00,30.2,28.9,00.0,38.9,32.0,26.5,0000.0,0006.51,0002.84,0002.12
2022-10-01 02:34:00,,0827.1,5.01,0.00,30.2,28.9,00.0,38.9,32.0,26.5,0000.0,0006.08,0002.81,0002.13
2022-10-01 02:35:00,,0827.1,5.00,0.00,30.2,28.9,00.0,38.9,32.1,26.3,0000.0,0005.97,0002.80,0002.13
2022-10-01 02:36:00,,0827.0,5.01,0.00,30.2,28.9,00.0,38.9,32.1,26.1,0000.0,0006.17,0002.82,0002.12
2022-10-01 02:37:00,,0827.2,4.98,0.00,30.2,28.9,00.0,38.9,32.1,26.3,0000.0,0006.24,0002.87,0002.11
2022-10-01 02:38:00,,0827.4,5.00,0.00,30.2,28.9,00.0,38.9,32.1,26.3,0000.0,0004.93,0002.85,0002.11
2022-10-01 02:39:00,,0827.1,5.00,0.00,30.2,29.0,00.0,38.9,32.1,26.4,0000.0,0004.79,0002.84,0002.11
2022-10-01 02:40:00,,0827.2,4.99,0.00,30.3,29.0,00.0,39.0,32.1,26.8,0000.0,0004.77,0002.84,0002.09
2022-10-01 02:41:00,,0827.2,5.01,0.00,30.3,29.0,00.0,39.0,32.1,28.3,0000.0,0004.88,0002.85,0002.08
2022-10-01 02:42:00,,0827.3,5.01,0.00,30.3,29.0,00.0,39.0,32.1,28.6,0000.0,0004.91,0002.89,0002.09
2022-10-01 02:43:00,,0827.2,4.99,0.00,30.3,29.0,00.0,39.0,32.1,28.1,0000.0,0005.06,0002.90,0002.08
2022-10-01 02:44:00,,0827.2,5.01,0.00,30.3,29.0,00.0,39.0,32.1,27.5,0000.0,0005.32,0002.90,0002.08
2022-10-01 02:45:00,,0827.3,5.01,0.00,30.3,29.0,00.0,39.0,32.1,27.2,0000.0,0005.33,0002.86,0002.06
2022-10-01 02:46:00,,0827.3,5.00,0.00,30.3,28.9,00.0,39.0,32.1,27.7,0000.0,0005.27,0002.84,0002.06
2022-10-01 02:47:00,,0827.4,5.00,0.00,30.3,27.8,00.0,39.0,32.1,27.9,0000.0,0006.25,0002.85,0002.06
2022-10-01 02:48:00,,0827.4,5.01,0.00,30.3,26.7,00.0,38.9,32.0,28.0,0000.0,0007.14,0002.82,0002.07
2022-10-01 02:49:00,,0827.4,5.01,0.00,30.2,26.5,00.0,38.9,31.9,28.1,0000.0,0007.27,0002.87,0002.08
2022-10-01 02:50:00,,0827.4,4.99,0.00,30.1,26.7,00.0,38.8,31.7,28.2,0000.0,0007.28,0002.86,0002.07
2022-10-01 02:51:00,,0827.4,5.00,0.00,30.0,27.1,00.0,38.8,31.6,28.2,0000.0,0007.63,0002.85,0002.06
2022-10-01 02:52:00,,0827.5,5.00,0.00,29.9,27.4,00.0,38.8,31.6,28.2,0000.0,0007.56,0002.82,0002.06
2022-10-01 02:53:00,,0827.5,5.01,0.00,29.9,27.6,00.0,38.7,31.6,28.3,0000.0,0007.51,0002.79,0002.05
2022-10-01 02:54:00,,0827.5,4.99,0.00,29.9,27.8,00.0,38.7,31.6,28.4,0000.0,0007.45,0002.77,0002.05
2022-10-01 02:55:00,,0827.5,4.99,0.00,29.9,27.9,00.0,38.7,31.7,28.6,0000.0,0007.33,0002.72,0002.04
2022-10-01 02:56:00,,0827.5,5.00,0.00,29.9,28.0,00.0,38.7,31.7,28.6,0000.0,0007.24,0002.72,0002.04
2022-10-01 02:57:00,,0827.6,5.00,0.00,29.8,28.1,00.0,38.7,31.7,28.8,0000.0,0007.14,0002.69,0002.04
2022-10-01 02:58:00,,0827.7,5.01,0.00,29.8,28.2,00.0,38.7,31.7,28.9,0000.0,0006.86,0002.72,0002.06
2022-10-01 02:59:00,,0827.7,4.99,0.00,29.8,28.2,00.0,38.7,31.7,29.0,0000.0,0005.14,0002.70,0002.08
